Location: Unspecified
(46.9200°N, 0.0000°E)
Time: 16:52:32
(UTC+00:00)

SL-16 Debris - Visible Passes

Search period start: 04 April 2026 00:00
Search period end: 14 April 2026 00:00
Orbit: 838 x 1151 km, 71.0° (Epoch: 28 March)

Date Brightness Start Highest point End Pass type
(mag) Time Alt. Az. Time Alt. Az. Time Alt. Az.
4 Apr ? 00:14:34 20° E 00:14:34 20° E 00:18:13 10° NE visible
4 Apr ? 01:59:37 84° W 01:59:43 84° WNW 02:06:55 10° NNE visible
4 Apr ? 03:44:40 17° W 03:48:14 24° NW 03:53:51 10° N visible
5 Apr ? 00:45:18 38° E 00:45:18 38° E 00:50:36 10° NE visible
5 Apr ? 02:30:21 46° W 02:31:24 50° NW 02:38:18 10° NNE visible
5 Apr ? 04:16:30 10° WNW 04:20:42 16° NNW 04:24:49 10° N visible
5 Apr ? 23:30:57 14° ENE 23:30:57 14° ENE 23:32:45 10° ENE visible
6 Apr ? 01:16:00 69° ENE 01:16:00 69° ENE 01:22:23 10° NNE visible
6 Apr ? 03:01:03 25° WNW 03:03:23 30° NW 03:09:31 10° NNE visible
6 Apr ? 04:51:34 10° NW 04:53:28 11° NNW 04:55:20 10° N visible
7 Apr ? 00:01:37 27° ENE 00:01:37 27° ENE 00:05:45 10° NE visible
7 Apr ? 01:46:40 64° WNW 01:46:46 64° WNW 01:53:51 10° NNE visible
7 Apr ? 03:31:43 13° WNW 03:35:41 19° NW 03:40:34 10° N visible
8 Apr ? 00:32:15 49° ENE 00:32:15 49° ENE 00:37:46 10° NE visible
8 Apr ? 02:17:18 35° WNW 02:18:36 38° NW 02:25:08 10° NNE visible
8 Apr ? 04:05:12 10° NW 04:08:18 13° NNW 04:11:22 10° N visible
8 Apr ? 23:17:49 19° ENE 23:17:49 19° ENE 23:20:43 10° NE visible
9 Apr ? 01:02:52 75° N 01:02:52 75° N 01:09:22 10° NNE visible
9 Apr ? 02:47:54 19° WNW 02:50:45 24° NW 02:56:16 10° N visible
9 Apr ? 23:48:24 35° ENE 23:48:24 35° ENE 23:53:04 10° NE visible
10 Apr ? 01:33:26 48° WNW 01:33:55 49° NW 01:40:44 10° NNE visible
10 Apr ? 03:19:08 10° WNW 03:23:13 16° NNW 03:27:12 10° N visible
10 Apr ? 22:33:54 13° ENE 22:33:54 13° ENE 22:35:16 10° ENE visible
11 Apr ? 00:18:56 63° NE 00:18:56 63° NE 00:24:50 10° NNE visible
11 Apr ? 02:03:59 26° WNW 02:05:54 30° NW 02:11:55 10° NNE visible
11 Apr ? 03:54:23 10° NNW 03:55:58 11° NNW 03:57:32 10° N visible
11 Apr ? 23:04:24 26° ENE 23:04:24 26° ENE 23:08:14 10° NE visible
12 Apr ? 00:49:26 63° NW 00:49:26 63° NW 00:56:17 10° NNE visible
12 Apr ? 02:34:28 13° WNW 02:38:11 19° NW 02:42:57 10° N visible
12 Apr ? 23:34:52 48° ENE 23:34:52 48° ENE 23:40:13 10° NE visible
13 Apr ? 01:19:54 35° WNW 01:21:07 37° NW 01:27:34 10° NNE visible
13 Apr ? 03:07:52 10° NW 03:10:48 13° NNW 03:13:40 10° N visible
13 Apr ? 22:20:16 19° ENE 22:20:16 19° ENE 22:23:11 10° NE visible
